[[{"header":{"parameterUnit":"m.s-1","parameterCategory":1,"la1":30.2991,"la2":30.254,"lo1":-89.0895,"lo2":-89.0444,"dy":0.0017,"dx":0.0017,"nx":28,"ny":28,"refTime":"2025-05-25T09:00:00:Z","depth":0,"parameterNumber":2,"parameterNumberName":"U-component_of_WINDS"},"data":[0,0,0,0,0,0,0,0,0,0,0,0,0,0,0,0,0,0,0,0,0,0,0,0,0,0,0,0,0,0,0,0,0,0,0,0,0,0,0,0,0,0,0,0,0,0,0,0,0,0,0,0,0,0,0,0,0,0,0.0677,0.0678,0,0.0717,0.0718,0.0718,0.0733,0.0732,0.0732,0.0732,0.0772,0.0773,0.0774,0,0,0,0,0,0,0,0,0,0,0,0,0,0.0612,0.0613,0.0677,0.0678,0.0678,0.0717,0.0718,0.0718,0.0733,0.0732,0.0732,0.0732,0.0771,0.0773,0.0774,0,0,0,0,0,0,0,0,0,0,0,0,0,0.0645,0.0614,0.0677,0.069,0.0692,0.0717,0.0718,0.0718,0.0733,0.0732,0.0732,0.0732,0.0771,0.0773,0.0774,0.0789,0,0,0.078,0.0781,0,0,0,0,0,0,0,0,0.0643,0.0647,0.0688,0.0689,0.0691,0.072,0.0709,0.0742,0.0733,0.0717,0.0732,0.0732,0.0755,0.0758,0.0766,0.0791,0.0793,0.078,0.0781,0.0782,0.0782,0,0,0,0,0,0,0,0.0641,0.0646,0.0693,0.0688,0.069,0.0694,0.0698,0.0716,0.0736,0.0718,0.072,0.0724,0.0755,0.0764,0.0767,0.0794,0.078,0.0782,0.0783,0.0783,0.0834,0.0834,0,0,0,0,0,0,0.0637,0.0644,0.0692,0.0694,0.0666,0.0695,0.07,0.0711,0.0736,0.074,0.0724,0.0725,0.0761,0.0765,0.0768,0.0788,0.0782,0.0784,0.0785,0.0833,0.0834,0.0834,0,0,0,0,0,0,0.0635,0.0641,0.069,0.0669,0.0676,0.0696,0.0708,0.0712,0.072,0.0741,0.0744,0.0729,0.0761,0.0766,0.0784,0.0789,0.0784,0.0786,0.0833,0.0833,0.0834,0.0826,0,0,0,0,0,0,0.0633,0.064,0.0646,0.0669,0.0677,0.0706,0.0709,0.0713,0.0723,0.0724,0.0746,0.075,0.0761,0.0781,0.0786,0.0791,0.0787,0.0833,0.0833,0.0834,0.0826,0.0826,0.0827,0,0,0,0,0,0.0631,0.0642,0.0647,0.0652,0.0685,0.0706,0.0711,0.0724,0.0724,0.073,0.0743,0.0749,0.0788,0.0783,0.0788,0.0794,0.0832,0.0833,0.0834,0.0826,0.0826,0.0827,0,0,0,0,0,0,0.0619,0.0646,0.0651,0.067,0.0686,0.0709,0.0717,0.0724,0.0739,0.0739,0.0755,0.076,0.0777,0.0788,0.0782,0.081,0.081,0.0812,0.0803,0.0803,0.0803,0.0801,0.0789,0,0,0,0,0,0.0619,0.0634,0.0656,0.0671,0.0679,0.0697,0.0706,0.0715,0.0732,0.0738,0.0753,0.0769,0.0784,0.0794,0.081,0.0828,0.0833,0.0834,0.0835,0.0835,0.0836,0.0846,0.0847,0.0836,0.0836,0.0836,0,0,0.0618,0.0635,0.0643,0.0669,0.0683,0.0698,0.0702,0.0718,0.0729,0.0741,0.0759,0.077,0.0789,0.0807,0.0816,0.0816,0.084,0.0835,0.0835,0.0837,0.0847,0.0848,0.0849,0.0836,0.0836,0.0836,0,0,0.0625,0.0639,0.0653,0.0666,0.0687,0.0698,0.0701,0.0723,0.0731,0.075,0.0759,0.0773,0.0799,0.0812,0.0822,0.0834,0.084,0.0838,0.0839,0.0849,0.085,0.0851,0.0855,0.0856,0.0839,0.0839,0.0839,0,0.0622,0.0645,0.0659,0.0675,0.0686,0.0697,0.0712,0.0724,0.0747,0.0755,0.0755,0.0789,0.0802,0.0824,0.0826,0.0834,0.0838,0.0836,0.0848,0.0849,0.085,0.0855,0.0856,0.0839,0.0839,0.0839,0.0839,0,0.064,0.0656,0.0665,0.0689,0.0701,0.0715,0.0731,0.0742,0.0749,0.0761,0.078,0.0796,0.0815,0.0821,0.0828,0.0843,0.0843,0.0846,0.0846,0.0851,0.0855,0.0857,0.0839,0.0839,0.0839,0.0839,0,0,0.0641,0.0672,0.0675,0.0686,0.0709,0.0721,0.0736,0.0755,0.0764,0.078,0.0793,0.0815,0.0818,0.0829,0.0838,0.0846,0.0854,0.0848,0.0849,0.0849,0.0872,0.087,0.0871,0.0858,0.0859,0.0859,0.087,0,0.0651,0.0679,0.0692,0.0714,0.0729,0.074,0.0753,0.0768,0.0779,0.0793,0.0805,0.082,0.0823,0.083,0.0839,0.0852,0.0859,0.0851,0.087,0.0871,0.0866,0.0873,0.0871,0.0881,0.0872,0.0872,0.0872,0,0.0666,0.0683,0.0706,0.0727,0.0734,0.0746,0.0764,0.0777,0.0795,0.0802,0.0815,0.0823,0.0839,0.0838,0.086,0.0854,0.0863,0.087,0.0871,0.0873,0.0872,0.0876,0.0885,0.0886,0.0875,0.0875,0.0875,0,0.0665,0.0692,0.071,0.0719,0.0744,0.0752,0.0763,0.078,0.079,0.0806,0.0813,0.0831,0.084,0.0853,0.0866,0.0864,0.0887,0.0887,0.0893,0.0893,0.0897,0.0897,0.0907,0.0903,0.0903,0.0903,0.0903,0,0.0674,0.0688,0.071,0.0721,0.0737,0.0751,0.0766,0.0778,0.0793,0.0806,0.0816,0.0828,0.0844,0.0858,0.0868,0.0885,0.0889,0.0895,0.0898,0.0894,0.0894,0.09,0.09,0.0903,0.0903,0.0903,0.0903,0,0.0675,0.069,0.071,0.0733,0.0738,0.0749,0.0768,0.0779,0.079,0.0806,0.0811,0.0829,0.0846,0.086,0.0882,0.0889,0.0906,0.0909,0.09,0.0901,0.0907,0.0906,0.0922,0.0925,0.0918,0.0918,0.0918,0,0.0681,0.0692,0.0715,0.0725,0.0736,0.0751,0.0762,0.0777,0.0787,0.0808,0.0816,0.0834,0.0849,0.0875,0.089,0.0906,0.091,0.0914,0.0913,0.0909,0.091,0.0909,0.091,0.0914,0.0914,0.0914,0.0914,0,0.0689,0.0696,0.0711,0.073,0.0742,0.0757,0.0772,0.078,0.0797,0.0809,0.0826,0.0838,0.086,0.0878,0.0896,0.0906,0.0913,0.0915,0.0917,0.0914,0.0909,0.0912,0.09,0.0915,0.0915,0.0915,0.0915,0.0915,0.0692,0.0703,0.0721,0.0738,0.0751,0.0765,0.0776,0.0789,0.0804,0.0824,0.0831,0.0849,0.0866,0.0891,0.0902,0.0916,0.0917,0.092,0.0921,0.0922,0.0921,0.0906,0.0919,0.0919,0.0919,0.0919,0.0919,0,0.0701,0.0713,0.0729,0.075,0.0763,0.0769,0.0786,0.0796,0.0812,0.0827,0.0842,0.0862,0.0878,0.0894,0.0912,0.092,0.0923,0.0924,0.0924,0.0926,0.0919,0.0916,0.0921,0.0921,0.0921,0.0921,0.0921,0.0921,0.0707,0.0725,0.0734,0.0758,0.077,0.0788,0.0797,0.081,0.0822,0.0844,0.0858,0.0869,0.0884,0.0903,0.0918,0.0923,0.0929,0.0928,0.0933,0.0927,0.0926,0.0926,0.0923,0.0929,0.0929,0.0939,0.0939,0.0939]},{"header":{"parameterUnit":"m.s-1","parameterCategory":1,"la1":30.2991,"la2":30.254,"lo1":-89.0895,"lo2":-89.0444,"dy":0.0017,"dx":0.0017,"nx":28,"ny":28,"refTime":"2025-05-25T09:00:00:Z","depth":0,"parameterNumber":3,"parameterNumberName":"V-component_of_WINDS"},"data":[0,0,0,0,0,0,0,0,0,0,0,0,0,0,0,0,0,0,0,0,0,0,0,0,0,0,0,0,0,0,0,0,0,0,0,0,0,0,0,0,0,0,0,0,0,0,0,0,0,0,0,0,0,0,0,0,0,0,1.3629,1.363,0,1.3652,1.3653,1.3653,1.366,1.3659,1.3659,1.3659,1.3681,1.3681,1.3682,0,0,0,0,0,0,0,0,0,0,0,0,0,1.359,1.3591,1.3629,1.363,1.363,1.3652,1.3653,1.3653,1.366,1.3659,1.3659,1.3659,1.368,1.3681,1.3682,0,0,0,0,0,0,0,0,0,0,0,0,0,1.3609,1.3591,1.3629,1.3636,1.3637,1.3652,1.3653,1.3653,1.366,1.3659,1.3659,1.3659,1.368,1.3681,1.3682,1.3692,0,0,1.3685,1.3686,0,0,0,0,0,0,0,0,1.3608,1.3611,1.3635,1.3636,1.3637,1.3653,1.3647,1.3666,1.366,1.3651,1.3659,1.3659,1.3671,1.3673,1.3678,1.3693,1.3694,1.3685,1.3686,1.3686,1.3687,0,0,0,0,0,0,0,1.3607,1.361,1.3638,1.3635,1.3636,1.3637,1.364,1.365,1.3662,1.3652,1.3652,1.3655,1.3672,1.3677,1.3678,1.3694,1.3685,1.3686,1.3687,1.3687,1.372,1.372,0,0,0,0,0,0,1.3605,1.3609,1.3638,1.3639,1.3622,1.3638,1.3641,1.3648,1.3662,1.3664,1.3655,1.3655,1.3675,1.3677,1.3679,1.3692,1.3686,1.3687,1.3688,1.3719,1.372,1.372,0,0,0,0,0,0,1.3604,1.3607,1.3637,1.3624,1.3628,1.3639,1.3647,1.3648,1.3653,1.3664,1.3666,1.3658,1.3675,1.3678,1.3689,1.3693,1.3688,1.3689,1.3719,1.372,1.372,1.3719,0,0,0,0,0,0,1.3603,1.3607,1.3611,1.3624,1.3629,1.3647,1.3647,1.3649,1.3655,1.3656,1.3668,1.3669,1.3675,1.3688,1.369,1.3695,1.3689,1.3719,1.3719,1.372,1.3718,1.3719,1.3719,0,0,0,0,0,1.3601,1.3609,1.3611,1.3615,1.3634,1.3647,1.365,1.3657,1.3656,1.366,1.3667,1.3669,1.3692,1.3689,1.3692,1.3696,1.3719,1.3719,1.372,1.3718,1.3719,1.3719,0,0,0,0,0,0,1.3595,1.3611,1.3613,1.3626,1.3635,1.3648,1.3654,1.3657,1.3666,1.3666,1.3674,1.3676,1.3687,1.3693,1.3689,1.3707,1.3705,1.3707,1.3703,1.3704,1.3705,1.3703,1.369,0,0,0,0,0,1.3595,1.3605,1.3618,1.3627,1.3632,1.3642,1.3648,1.3653,1.3662,1.3666,1.3674,1.3683,1.3693,1.3698,1.3708,1.3719,1.3722,1.3724,1.3724,1.3725,1.3726,1.3733,1.3735,1.3722,1.3722,1.3722,0,0,1.3595,1.3605,1.361,1.3626,1.3634,1.3644,1.3645,1.3655,1.3663,1.3667,1.3679,1.3685,1.3696,1.3708,1.3713,1.3713,1.373,1.3725,1.3726,1.3727,1.3734,1.3735,1.3736,1.3722,1.3722,1.3722,0,0,1.36,1.3609,1.3618,1.3627,1.3639,1.3646,1.3648,1.3661,1.3666,1.3678,1.3682,1.369,1.3706,1.3714,1.372,1.3729,1.3732,1.3732,1.3735,1.3742,1.3743,1.3744,1.3748,1.375,1.3733,1.3733,1.3733,0,1.3599,1.3614,1.3622,1.3633,1.364,1.3646,1.3656,1.3663,1.3677,1.3682,1.3681,1.3702,1.3709,1.3724,1.3726,1.3731,1.3734,1.3731,1.3742,1.3743,1.3744,1.3749,1.375,1.3733,1.3733,1.3733,1.3733,0,1.3612,1.3623,1.3629,1.3644,1.3652,1.3662,1.3671,1.3678,1.3682,1.3689,1.3702,1.3711,1.3723,1.3726,1.373,1.3741,1.3741,1.3741,1.374,1.3746,1.375,1.3751,1.3733,1.3733,1.3733,1.3733,0,0,1.3613,1.3634,1.3636,1.3644,1.3658,1.3667,1.3677,1.3689,1.3695,1.3705,1.3714,1.3728,1.3729,1.3736,1.374,1.3747,1.3755,1.3746,1.3747,1.3748,1.3769,1.3769,1.3771,1.3757,1.3757,1.3757,1.3769,0,1.3621,1.3641,1.3649,1.3665,1.3675,1.3682,1.3691,1.37,1.3707,1.3717,1.3724,1.3734,1.3734,1.3738,1.3745,1.3753,1.3759,1.3752,1.3765,1.3766,1.3763,1.3773,1.3773,1.3783,1.377,1.377,1.3771,0,1.3633,1.3644,1.3661,1.3676,1.3681,1.3689,1.3702,1.371,1.3722,1.3726,1.3735,1.3739,1.375,1.3748,1.3764,1.3758,1.3764,1.3769,1.377,1.3772,1.3769,1.3776,1.3787,1.3788,1.3773,1.3773,1.3773,0,1.3633,1.3653,1.3666,1.3672,1.3689,1.3695,1.3702,1.3713,1.3721,1.3732,1.3737,1.3748,1.3754,1.3763,1.3771,1.3768,1.3786,1.3784,1.379,1.379,1.3794,1.3794,1.3807,1.3797,1.3797,1.3797,1.3797,0,1.3641,1.3652,1.3666,1.3674,1.3686,1.3696,1.3707,1.3715,1.3725,1.3735,1.374,1.3749,1.3759,1.3769,1.3774,1.3787,1.379,1.3794,1.3795,1.3794,1.3793,1.3798,1.3798,1.3797,1.3797,1.3797,1.3797,0,1.3643,1.3654,1.3669,1.3684,1.3689,1.3697,1.371,1.3718,1.3726,1.3738,1.3741,1.3753,1.3765,1.3773,1.3788,1.3793,1.3807,1.3808,1.3803,1.3804,1.381,1.381,1.3827,1.383,1.3817,1.3817,1.3818,0,1.3648,1.3657,1.3674,1.3681,1.3689,1.37,1.3708,1.3718,1.3726,1.3741,1.3747,1.376,1.3771,1.379,1.3799,1.3811,1.3813,1.3819,1.3815,1.3814,1.3814,1.3814,1.3815,1.3819,1.3819,1.3819,1.3819,0,1.3656,1.3661,1.3673,1.3687,1.3697,1.3708,1.3719,1.3724,1.3736,1.3745,1.3758,1.3767,1.3783,1.3796,1.3809,1.3816,1.382,1.382,1.3823,1.3821,1.3819,1.3821,1.3805,1.382,1.382,1.382,1.382,1.382,1.366,1.3668,1.3682,1.3695,1.3705,1.3716,1.3725,1.3734,1.3746,1.3761,1.3765,1.3779,1.3791,1.381,1.3817,1.3828,1.3828,1.3831,1.3832,1.3832,1.3833,1.3817,1.383,1.383,1.383,1.383,1.383,0,1.3668,1.3678,1.369,1.3707,1.3717,1.3721,1.3734,1.3742,1.3755,1.3766,1.3777,1.3793,1.3806,1.3817,1.383,1.3837,1.3839,1.384,1.384,1.3842,1.3832,1.3829,1.3839,1.3839,1.3839,1.3839,1.3839,1.3839,1.3674,1.3689,1.3696,1.3716,1.3725,1.374,1.3747,1.3757,1.3766,1.3784,1.3795,1.3803,1.3814,1.3829,1.3841,1.3844,1.3849,1.385,1.3853,1.3844,1.3843,1.3842,1.3839,1.3851,1.3851,1.3863,1.3863,1.3863]}]]